     2              OBSERVATION DATA    GPS                 RINEX VERSION / TYPE
TRRINEXO V2.4.6 UX                                          PGM / RUN BY / DATE
                                                            COMMENT
Original Marker Name: asa1                                  COMMENT
Campaign Name: STRC 1995                                    COMMENT
4-Character Station Name: ASA1                              COMMENT
6-Character Antenna Code: TRMSST                            COMMENT
Vertical Measurement Point: TGP                             COMMENT
Vertical Offset to Rinex Ref. Point: 0.0629                 COMMENT
Radial Measurement Point: NGP                               COMMENT
Radial Offset to Rinex Ref. Point: 0.2334                   COMMENT
Antenna Height from Field Measurement: 1.2700 m             COMMENT
Original XYZ: -2293193.2057 -4863235.0341 3419389.1927      COMMENT
New XYZ position is based on association with SCEC monument COMMENT
E1C9M8C8+0011. Position of that monument is believed to be  COMMENT
valid to within 1 m horizontally; vertical accuracy         COMMENT
should be no worse than 3-times this value.                 COMMENT
                                                            COMMENT
Revised Rinex header created by UCSD GPS archive for        COMMENT
GSAC on 12-Apr-1999 (1999:102) 00:39:13 GMT                 COMMENT
For assistance contact dagnew@ucsd.edu or hjohnson@ucsd.edu COMMENT
                                                            COMMENT
ASA1                                                        MARKER NAME
AEROPUERTO DE MEXICA                                        MARKER NUMBER
NULL SAHOPE (PUBLIC WORKS, BAJA STATE GOVNMT)               OBSERVER / AGENCY
3054 TRIMBLE 4000 SSE 6.10                                  REC # / TYPE / VERS
67941 TR 4000SST L1/L2 GEO                                  ANT # / TYPE
 -2293199.0000 -4863195.0000  3419391.0000                  APPROX POSITION XYZ
        1.1855        0.0000        0.0000                  ANTENNA: DELTA H/E/N
     1     1     0                                          WAVELENGTH FACT L1/2
     5    C1    L1    L2    P2    P1                        # / TYPES OF OBSERV
    30                                                      INTERVAL
  1995     2    15    16     1   30.000000                  TIME OF FIRST OBS
  1995     2    16     0     0    0.000000                  TIME OF LAST OBS
     0                                                      # OF SATELLITES
                                                            END OF HEADER
 95  2 15 16  1 30.0000000  0  4  1 14 15 22
  24281213.570       61071.23115
  21842316.172      -21530.10416
  21507258.914       51166.70816
  23107133.398      -28037.67215
 95  2 15 16  2  0.0000000  0  4  1 14 15 22
  24301733.086      168898.423 5
  21835118.680      -59352.484 6    -10790.33259  21835120.6484
  21524524.672      141898.922 6     23605.92359  21524527.2974
  23097755.484      -77320.517 5     -1276.91759  23097759.7154
 95  2 15 16  2 30.0000000  0  4  1 14 15 22
  24322251.242      276722.950 5     50407.80159  24322254.5124
  21827955.000      -96997.238 6    -40123.91149  21827956.8634
  21541883.727      233120.909 6     94687.95749  21541886.1414
  23088411.086     -126424.600 5    -39539.79749  23088413.7344
 95  2 15 16  3  0.0000000  0  4  1 14 15 22
  24342770.148      384549.139 5    134428.16649  24342773.0204
  21820827.672     -134451.211 6    -69308.81249  21820829.4534
  21559337.500      324840.057 6    166157.41249  21559340.5354
  23079098.461     -175363.183 5    -77673.69949  23079101.8954
 95  2 15 16  3 30.0000000  0  4  1 14 15 22
  24363289.867      492379.753 5    218451.91049  24363294.5554
  21813738.250     -171706.567 6    -98338.97349  21813739.8554
  21576884.594      417051.545 6    238010.48449  21576886.9614
  23069814.602     -224148.634 5   -115688.28049  23069818.2814
 95  2 15 16  4  0.0000000  0  4  1 14 15 22
  24383809.156      600208.973 4    302474.64849  24383813.9964
  21806691.688     -208736.728 6   -127193.60349  21806693.8094
  21594525.867      509756.465 6    310248.09449  21594528.7384
  23060558.836     -272788.883 5   -153589.71049  23060563.3014
 95  2 15 16  4 30.0000000  0  4  1 14 15 22
  24404330.766      708051.992 5    386508.11049  24404335.3014
  21799695.383     -245503.346 6   -155842.91149  21799697.2234
  21612266.492      602983.774 6    382892.71849  21612269.1884
  23051335.984     -321255.992 5   -191356.23249  23051338.7034
 95  2 15 16  5  0.0000000  0  4  1 14 15 22
  24424851.617      815889.536 5    470537.28849  24424854.9344
  21792746.297     -282022.001 6   -184298.99749  21792748.1484
  21630103.109      696716.547 6    455931.21049  21630105.8754
  23042145.320     -369553.905 5   -228990.93049  23042148.3444
 95  2 15 16  5 30.0000000  0  4  1 14 15 22
  24445369.508      923711.676 4    554554.46448  24445373.9264
  21785846.164     -318280.813 6   -212552.61149  21785847.9104
  21648035.742      790953.615 6    529362.66749  21648038.5664
  23032991.602     -417654.168 5   -266471.60249  23032995.2114
 95  2 15 16  6  0.0000000  0  4  1 14 15 22
  24465888.992     1031540.591 5    638576.91248  24465892.4024
  21778998.242     -354267.736 6   -240594.36849  21779000.1764
  21666069.070      885718.327 6    603205.26649  21666071.3674
  23023884.867     -465512.716 5   -303763.93049  23023887.9614
 95  2 15 16  6 30.0000000  0  4  1 14 15 22
  24486413.289     1139396.742 5    722620.62749  24486417.0164
  21772199.039     -389997.253 6   -268435.54849  21772200.7384
  21684204.359      981018.618 6    677465.19749  21684206.9734
  23014829.148     -513100.576 5   -340845.35849  23014832.0314
 95  2 15 16  7  0.0000000  0  4  1 14 15 22
  24506939.422     1247262.918 5    806672.11247  24506944.1804
  21765445.234     -425487.572 6   -296090.35549  21765447.2504
  21702437.070     1076833.424 6    752126.03949  21702439.6024
  23005821.953     -560430.372 5   -377725.68749  23005826.5004
 95  2 15 16  7 30.0000000  0  4  1 14 15 22
  24527469.023     1355145.631 5    890736.49249  24527473.4534
  21758738.422     -460733.373 6   -323554.61449  21758740.3794
  21720767.984     1173162.201 6    827187.38649  21720770.6094
  22996864.531     -607502.934 5   -414405.58049  22996868.5984
 95  2 15 16  8  0.0000000  0  4  1 14 15 22
  24548005.320     1463067.974 4    974831.79348  24548009.8554
  21752079.781     -495723.779 6   -350819.85649  21752081.4804
  21739198.008     1270011.931 6    902654.68849  21739200.7384
  22987954.977     -654323.966 5   -450889.45249  22987957.7424
 95  2 15 16  8 30.0000000  0  4  1 14 15 22
  24568550.688     1571030.409 4   1058958.27647  24568554.3094
  21745473.273     -530440.850 6   -377872.11849  21745474.9384
  21757725.438     1367375.002 6    978521.98449  21757727.7114
  22979090.797     -700908.316 5   -487188.94049  22979093.5624
 95  2 15 16  9  0.0000000  0  4  1 14 15 22
  24589101.875     1679029.284 4   1143113.15347  24589105.3094
  21738922.305     -564868.873 6   -404699.15149  21738924.3444
  21776349.820     1465247.291 6   1054786.08449  21776352.3634
  22970270.422     -747260.067 5   -523307.15449  22970274.6294
 95  2 15 16  9 30.0000000  0  4  1 14 15 22
  24609671.016       61195.66914
  21732408.336                      -19340.78716
  21795080.734       55777.08816
  22961474.383                      -26134.95414
 95  2 15 16 10  0.0000000  0  4  1 14 15 22
  24630229.102      169228.088 3
  21725955.742      -53251.879 6     -9658.70959  21725957.5124
  21813887.648      154606.750 6     28282.92959  21813890.5314
  22952733.344      -72068.529 4     -4759.51259  22952735.5594
 95  2 15 16 10 30.0000000  0  4  1 14 15 22
  24650798.617      277325.034 3     47736.68758  24650800.9734
  21719562.219      -86847.878 6    -35837.41949  21719564.1764
  21832794.875      253965.008 6    105704.91749  21832797.5824
  22944046.000     -117721.966 4    -40333.59849  22944048.9414
 95  2 15 16 11  0.0000000  0  4  1 14 15 22
  24671390.852      385535.761 3    132056.68647  24671393.6994
  21713238.547     -120080.282 6    -61732.80749  21713240.8674
  21851812.977      353906.220 6    183581.14949  21851815.3444
  22935424.750     -163027.175 4    -75636.33349  22935427.4104
 95  2 15 16 11 30.0000000  0  4  1 14 15 22
  24691987.336      493773.687 4    216397.81648  24691993.6414
  21706966.586     -153039.942 6    -87415.66249  21706968.4964
  21870924.508      454337.235 6    261839.05349  21870927.0984
  22926851.812     -208077.940 3   -110740.81349  22926855.1414
 95  2 15 16 12  0.0000000  0  4  1 14 15 22
  24712584.461      602007.233 4    300735.59346  24712589.3244
  21700739.633     -185762.361 6   -112913.65449  21700741.6024
  21890122.203      555222.376 6    340450.81949  21890124.6054
  22918321.727     -252901.736 4   -145668.41949  22918324.9964
 95  2 15 16 12 30.0010000  0  4  1 14 15 22
  24733182.489      710252.387 4    385082.39148  24733186.2044
  21694562.263     -218224.001 6   -138208.44649  21694564.1144
  21909410.372      656581.627 6    419432.02649  21909412.8104
  22909841.411     -297466.887 3   -180394.50049  22909844.1774
 95  2 15 16 13  0.0010000  0  4  1 14 15 22
  24753783.349      818510.362 4    469439.13647  24753788.1424
  21688435.325     -250421.122 6   -163297.10949  21688437.2714
  21928787.146      758407.703 6    498776.99249  21928790.0754
  22901412.591     -341760.866 3   -214909.23349  22901415.9314
 95  2 15 16 13 30.0010000  0  4  1 14 15 22
  24774387.622      926787.086 4    553810.57948  24774391.3024
  21682360.075     -282347.880 6   -188175.10549  21682362.1384
  21948251.208      860693.075 6    578479.84249  21948254.2674
  22893033.661     -385791.002 4   -249218.40549  22893036.6264
 95  2 15 16 14  0.0010000  0  4  1 14 15 22
  24794995.739     1035081.476 5    638195.70648  24794999.1384
  21676336.903     -313999.664 6   -212838.84149  21676339.0834
  21967803.247      963438.736 6    658541.35949  21967805.8604
  22884711.208     -429527.911 4   -283299.13049  22884714.6064
 95  2 15 16 14 30.0010000  0  4  1 14 15 22
  24815613.403     1143426.993 5    722620.69749  24815617.4114
  21670375.724     -345325.122 7   -237248.30649  21670377.7634
  21987448.685     1066676.445 6    738986.27049  21987451.3214
  22876451.606     -472932.017 5   -317120.50449  22876454.3964
 95  2 15 16 15  0.0010000  0  4  1 14 15 22
  24836242.458     1251831.899 5    807091.96749  24836246.7474
  21664475.138     -376333.135 7   -261410.39649  21664477.0834
  22007186.060     1170396.854 6    819807.33549  22007189.0244
  22868250.630     -516027.515 5   -350701.40349  22868253.2904
 95  2 15 16 15 30.0010000  0  4  1 14 15 22
  24856877.630     1360274.288 5    891592.43449  24856881.4034
  21658632.708     -407035.914 7   -285334.63849  21658634.2554
  22027012.880     1274586.828 6    900994.28949  22027015.9274
  22860105.638     -558827.575 5   -384052.08649  22860109.1884
 95  2 15 16 16  0.0010000  0  4  1 14 15 22
  24877525.544     1468776.005 5    976139.13049  24877529.3294
  21652853.646     -437406.187 7   -308999.79149  21652855.3924
  22046935.638     1379282.532 6    982575.32949  22046938.4384
  22852023.263     -601302.184 5   -417149.17749  22852026.6384
 95  2 15 16 16 30.0010000  0  4  1 14 15 22
  24898180.583     1577319.133 5   1060718.12849  24898183.8644
  21647135.606     -467452.922 7   -332412.82849  21647137.4354
  22066950.794     1484463.730 6   1064534.66649  22066953.7944
  22843994.567     -643493.076 5   -450025.20249  22843997.6734
 95  2 15 16 17  0.0010000  0  4  1 14 15 22
  24918842.075     1685897.685 5   1145324.70148  24918846.4464
  21641478.271     -497182.345 7   -355578.61249  21641480.2284
  22087056.911     1590119.323 6   1146863.65749  22087059.5134
  22836019.474     -685402.863 5   -482682.18449  22836021.8994
 95  2 15 16 17 30.0010000  0  4  1 14 15 22
  24939509.192     1794502.276 4   1229951.55349  24939513.3414
  21635884.021     -526580.250 7   -378486.06649  21635885.9314
  22107252.380     1696247.388 6   1229560.82149  22107255.1694
  22828099.755     -727021.605 5   -515112.36249  22828102.7674
 95  2 15 16 18  0.0010000  0  4  1 14 15 22
  24960182.989     1903144.337 4   1314607.59348  24960188.1104
  21630352.427     -555647.913 7   -401136.19649  21630354.3604
  22127536.114     1802838.893 6   1312619.09849  22127538.9034
  22820233.396     -768359.932 5   -547324.04549  22820236.2674
 95  2 15 16 18 30.0010000  0  4  1 14 15 22
  24980863.497     2011823.695 4   1399292.71148  24980867.8924
  21624883.161     -584391.537 7   -423533.82749  21624885.0364
  22147904.513     1909873.869 6   1396022.94049  22147906.9274
  22812420.067     -809418.168 5   -579317.47849  22812423.2784
 95  2 15 16 19  0.0010000  0  4  1 14 15 22
  25001557.825     2120568.736 3   1484029.00347  25001564.5284
  21619478.536     -612792.535 7   -445664.47149  21619480.4704
  22168361.942     2017377.955 6   1479792.32449  22168364.7904
  22804668.356     -850155.917 5   -611061.16949  22804671.7204
 95  2 15 16 19 30.0010000  0  4  1 14 15 22
  25022260.130     2229360.080 3   1568801.42547  25022262.9314
  21614134.591     -640875.555 6   -467547.32949  21614136.7124
  22188905.450     2125335.740 6   1563915.26449  22188908.1814
  22796974.958     -890585.364 5   -642564.62049  22796977.6534
 95  2 15 16 20  0.0010000  0  4  1 14 15 22
  25042971.411     2338199.697 4   1653611.43242  25042975.3134
  21608850.817     -668641.899 6   -489183.45649  21608852.8684
  22209535.841     2233748.322 6   1648392.55149  22209538.7004
  22789343.349     -930687.708 5   -673813.19549  22789346.5364
 95  2 15 16 20 30.0010000  0  4  1 14 15 22
  25063695.169     2447102.587 4   1738470.68448  25063698.9784
  21603633.458     -696060.174 7   -510548.35649  21603635.3924
  22230255.872     2342633.863 6   1733238.39049  22230258.8494
  22781782.052     -970423.501 5   -704776.15749  22781784.6424
 95  2 15 16 21  0.0010000  0  4  1 14 15 22
  25084423.325     2556028.043 4   1823347.55446  25084427.2744
  21598475.989     -723161.860 7   -531666.55949  21598478.2634
  22251059.497     2451956.900 6   1818425.13549  22251062.6034
  22774284.099    -1009822.925 5   -735476.99649  22774286.8994
 95  2 15 16 21 30.0010000  0  4  1 14 15 22
  25105158.138     2664988.579 5   1908251.81847  25105162.7434
  21593385.060     -749915.498 7   -552513.56349  21593386.8994
  22271948.138     2561728.054 6   1903961.06749  22271950.8104
  22766855.810    -1048860.752 5   -765896.07249  22766859.1034
 95  2 15 16 22  0.0010000  0  4  1 14 15 22
  25125902.302     2773999.691 5   1993195.45348  25125905.4424
  21588364.888     -776296.195 7   -573069.95549  21588366.6924
  22292923.005     2671949.962 6   1989848.23049  22292925.7824
  22759498.497    -1087525.033 5   -796024.06649  22759500.9464
 95  2 15 16 22 30.0010000  0  4  1 14 15 22
  25146653.052     2883046.981 5   2078167.23749  25146657.9384
  21583413.317     -802318.426 7   -593347.02949  21583415.2044
  22313978.247     2782596.743 6   2076066.45349  22313980.8254
  22752207.521    -1125838.726 5   -825878.89149  22752210.5674
 95  2 15 16 23  0.0010000  0  4  1 14 15 22
  25167411.942     2992132.744 4   2163169.01947  25167417.1694
  21578528.294     -827988.802 7   -613349.92149  21578530.1694
  22335114.802     2893670.522 6   2162617.41849  22335117.8134
  22744983.489    -1163801.093 5   -855459.91949  22744986.6534
 95  2 15 16 23 30.0010000  0  4  1 14 15 22
  25188178.263     3101260.343 4   2248203.44447  25188182.4814
  21573708.810     -853315.811 7   -633085.25649  21573710.7084
  22356332.005     3005166.890 6   2249497.67649  22356334.7354
  22737825.427    -1201416.725 5   -884770.78449  22737828.6034
 95  2 15 16 24  0.0010000  0  4  1 14 15 22
  25208951.544     3210423.651 4   2333265.66448  25208956.7004
  21568949.802     -878324.310 6   -652572.40049  21568951.7474
  22377628.255     3117079.016 6   2336701.88749  22377630.9854
  22730731.403    -1238695.276 4   -913818.96249  22730734.0874
 95  2 15 16 24 30.0010000  0  3 14 15 22
  21564249.630     -903022.599 6   -671817.82749  21564251.6464
  22399005.185     3229416.046 6   2424237.20049  22399007.9504
  22723701.481    -1275637.325 5   -942604.95949  22723705.0564
 95  2 15 16 25  0.0010000  0  3 14 15 22
  21559605.552     -927428.582 6   -690835.48749  21559607.6614
  22420460.685     3342164.866 6   2512093.39049  22420463.2744
  22716734.208    -1312253.195 5   -971136.77649  22716737.8294
 95  2 15 16 25 30.0010000  0  3 14 15 22
  21555022.302     -951514.329 6   -709603.61049  21555024.0014
  22441997.403     3455341.125 6   2600282.64749  22442000.2514
  22709832.560    -1348521.733 5   -999397.97049  22709835.4074
 95  2 15 16 26  0.0010000  0  3 14 15 22
  21550507.958     -975237.543 6   -728089.24249  21550509.9504
  22463619.021     3568962.725 6   2688818.90749  22463622.3254
  22703001.841    -1384416.538 5  -1027367.92049  22703004.9464
 95  2 15 16 26 30.0010000  0  3 14 15 22
  21546065.497     -998581.913 6   -746279.66549  21546067.2554
  22485319.575     3683001.591 6   2777680.33249  22485322.3414
  22696240.286    -1419948.501 5  -1055055.14149  22696242.9934
 95  2 15 16 27  0.0010000  0  3 14 15 22
  21541687.567    -1021587.190 6   -764205.86449  21541689.7474
  22507087.802     3797393.171 6   2866816.58849  22507090.0874
  22689541.005    -1455154.736 5  -1082488.55649  22689544.5914
 95  2 15 16 27 30.0010000  0  3 14 15 22
  21537378.692    -1044232.074 6   -781851.23849  21537380.7314
  22528922.810     3912136.313 6   2956226.78149  22528925.7634
  22682902.575    -1490037.075 5  -1109669.58449  22682905.8564
 95  2 15 16 28  0.0010000  0  3 14 15 22
  21533144.810    -1066481.113 6   -799188.16149  21533146.6614
  22550829.856     4027258.773 6   3045932.56449  22550832.1304
  22676332.646    -1524563.916 5  -1136573.59949  22676335.9624
 95  2 15 16 28 30.0010000  0  3 14 15 22
  21528985.396    -1088339.499 6   -816220.68149  21528987.2004
  22572812.528     4142776.816 6   3135946.56949  22572815.2944
  22669834.138    -1558711.472 5  -1163182.08449  22669837.3494
 95  2 15 16 29  0.0010000  0  3 14 15 22
  21524894.521    -1109836.823 7   -832971.87849  21524896.3604
  22594867.981     4258680.066 6   3226260.73049  22594870.6534
  22663406.138    -1592491.644 6  -1189504.30149  22663408.9504
 95  2 15 16 29 30.0010000  0  3 14 15 22
  21520869.333    -1130988.286 7   -849453.54049  21520871.1264
  22616994.880     4374956.644 6   3316865.82849  22616997.5524
  22657044.911    -1625919.018 5  -1215551.58949  22657047.8534
 95  2 15 16 30  0.0010000  0  3 14 15 22
  21516906.638    -1151814.340 7   -865681.64049  21516908.3374
  22639191.591     4491600.744 6   3407757.27549  22639194.4154
  22650753.419    -1658982.512 6  -1241315.33349  22650756.1614
 95  2 15 16 30 30.0010000  0  3 14 15 22
  21513006.028    -1172312.127 7   -881653.94849  21513007.6814
  22661456.794     4608608.009 6   3498931.73049  22661459.6654
  22644532.481    -1691673.968 6  -1266789.17849  22644535.3064
 95  2 15 16 31  0.0010000  0  3 14 15 22
  21509170.583    -1192467.455 7   -897359.40249  21509172.2244
  22683790.755     4725971.069 6   3590383.43449  22683793.3334
  22638381.083    -1723998.388 6  -1291977.02349  22638383.8724
 95  2 15 16 31 30.0010000  0  3 14 15 22
  21505403.833    -1212260.371 7   -912782.45649  21505405.5324
  22706195.638     4843708.516 6   3682126.85549  22706197.9934
  22632305.817    -1755925.564 6  -1316855.33449  22632308.8174
 95  2 15 16 32  0.0010000  0  3 14 15 22
  21501705.692    -1231694.798 7   -927926.17049  21501707.2984
  22728667.497     4961801.674 6   3774147.46249  22728670.4854
  22626304.099    -1787464.619 6  -1341431.20549  22626306.7714
 95  2 15 16 32 30.0010000  0  3 14 15 22
  21498076.997    -1250764.470 7   -942785.65749  21498078.5794
  22751206.997     5080246.645 6   3866442.20449  22751209.9744
  22620376.786    -1818612.937 6  -1365702.61049  22620379.4704
 95  2 15 16 33  0.0020000  0  3 14 15 22
  21494518.955    -1269462.253 7   -957355.36049  21494520.4434
  22773815.111     5199052.646 6   3959018.26949  22773818.2054
  22614526.049    -1849358.844 6  -1389660.43049  22614528.8384
 95  2 15 16 33 30.0020000  0  3 14 15 22
  21491032.158    -1287785.766 7   -971633.42649  21491033.5644
  22796488.908     5318204.951 6   4051864.15649  22796492.5534
  22608751.729    -1879702.476 6  -1413304.82249  22608754.4004
 95  2 15 16 34  0.0020000  0  3 14 15 22
  21487619.104    -1305720.260 7   -985608.35749  21487620.4284
  22819229.830     5437709.366 6   4144984.44549  22819233.1934
  22603053.330    -1909647.731 5  -1436638.76149  22603056.2014
 95  2 15 16 34 30.0020000  0  3 14 15 22
  21484281.119    -1323262.540 7   -999277.66549  21484282.5254
  22842038.869     5557571.296 6   4238383.29749  22842041.8344
  22597433.439    -1939181.395 6  -1459652.00049  22597436.2874
 95  2 15 16 35  0.0020000  0  3 14 15 22
  21481017.002    -1340415.928 7  -1012643.94349  21481018.4554
  22864911.752     5677769.249 6   4332043.99549  22864915.1974
  22591886.486    -1968330.902 6  -1482365.89149  22591889.3224
 95  2 15 16 35 30.0020000  0  3 14 15 22
  21477828.385    -1357172.972 7  -1025701.37949  21477829.8964
  22887849.611     5798307.494 6   4425969.84849  22887852.6464
  22586412.697    -1997097.071 6  -1504781.07449  22586415.4044
 95  2 15 16 36  0.0020000  0  3 14 15 22
  21474717.814    -1373517.708 7  -1038437.53549  21474719.4084
  22910853.908     5919194.329 6   4520167.32849  22910857.1894
  22581015.518    -2025458.815 6  -1526881.12549  22581018.0964
 95  2 15 16 36 30.0020000  0  3 14 15 22
  21471684.135    -1389459.354 7  -1050859.60249  21471685.8114
  22933920.111     6040411.373 6   4614622.12549  22933923.1114
  22575692.791    -2053430.788 5  -1548677.45449  22575695.2054
 95  2 15 16 37  0.0020000  0  3 14 15 22
  21468730.611    -1404981.022 7  -1062954.40949  21468732.0534
  22957051.846     6161965.547 6   4709339.60549  22957054.8114
  22570443.697    -2081014.789 6  -1570171.46849  22570446.5104
 95  2 15 16 37 30.0020000  0  3 14 15 22
  21465854.104    -1420096.699 7  -1074732.86049  21465855.8384
  22980245.322     6283849.967 6   4804314.42049  22980248.4044
  22565272.908    -2108186.464 5  -1591344.18949  22565275.2994
 95  2 15 16 38  0.0020000  0  3 14 15 22
  21463053.486    -1434814.712 7  -1086201.44149  21463055.0804
  23003500.283     6406055.435 6   4899539.40949  23003504.0214
  22560182.893    -2134935.250 5  -1612187.38049  22560185.3774
 95  2 15 16 38 30.0020000  0  3 14 15 22
  21460328.260    -1449134.973 7  -1097360.09249  21460329.9004
  23026817.525     6528587.496 6   4995018.88849  23026820.5254
  22555175.588    -2161248.305 6  -1632691.04949  22555178.0844
 95  2 15 16 39  0.0020000  0  3 14 15 22
  21457677.893    -1463062.760 7  -1108212.92249  21457679.4394
  23050196.564     6651444.133 6   5090751.27149  23050199.3074
  22550255.533    -2187103.426 5  -1652837.88349  22550257.9824
 95  2 15 16 39 30.0020000  0  3 14 15 22
  21455099.963    -1476609.656 7  -1118768.95149  21455101.5334
  23073635.197     6774613.930 6   5186727.69049  23073637.7754
  22545422.252    -2212501.077 6  -1672628.24449  22545425.1704
 95  2 15 16 40  0.0020000  0  3 14 15 22
  21452597.213    -1489762.290 7  -1129017.76349  21452598.6544
  23097132.854     6898095.986 6   5282947.42049  23097135.9824
  22540672.752    -2237460.626 6  -1692077.23349  22540675.7284
 95  2 15 16 40 30.0020000  0  3 14 15 22
  21450170.096    -1502518.222 7  -1138957.45649  21450171.6784
  23120688.221     7021879.795 6   5379402.27949  23120691.4674
  22536003.588    -2261997.005 6  -1711196.48149  22536006.6234
 95  2 15 16 41  0.0020000  0  3 14 15 22
  21447823.635    -1514847.963 7  -1148565.05849  21447825.3464
  23144303.189     7145976.795 6   5476101.17649  23144306.8814
  22531416.299    -2286103.341 6  -1729980.62249  22531419.3224
 95  2 15 16 41 30.0020000  0  3 14 15 22
  21445558.182    -1526753.439 7  -1157842.06449  21445559.8224
  23167974.604     7270369.208 6   5573030.27349  23167977.9434
  22526906.244    -2309804.192 6  -1748448.81449  22526909.1504
 95  2 15 16 42  0.0020000  0  3 14 15 22
  21443378.197    -1538207.950 7  -1166767.67149  21443379.7564
  23191704.729     7395073.963 6   5670202.75749  23191708.3384
  22522478.033    -2333074.261 6  -1766581.31749  22522480.7524
 95  2 15 16 42 30.0020000  0  3 14 15 22
  21441279.057    -1549240.593 7  -1175364.54949  21441280.5804
  23215489.291     7520062.220 6   5767596.13849  23215492.0924
  22518127.697    -2355935.580 6  -1784395.32949  22518130.2994
 95  2 15 16 43  0.0020000  0  3 14 15 22
  21439263.768    -1559829.890 7  -1183615.96749  21439265.4674
  23239330.463     7645348.104 6   5865221.44449  23239333.6744
  22513860.369    -2378360.704 6  -1801869.44849  22513862.9714
 95  2 15 16 43 30.0020000  0  3 14 15 22
  21437325.346    -1570017.388 7  -1191554.28949  21437327.1504
  23263222.932     7770904.017 6   5963057.15449  23263226.1074
  22509674.830    -2400356.280 6  -1819008.84849  22509677.6434
 95  2 15 16 44  0.0020000  0  3 14 15 22
  21435464.525    -1579795.812 7  -1199173.85349  21435466.5294
  23287169.697     7896744.093 6   6061114.30549  23287173.0254
  22505575.979    -2421893.524 6  -1835791.11449  22505578.6744
 95  2 15 16 44 30.0020000  0  3 14 15 22
  21433682.963    -1589158.662 7  -1206469.59349  21433684.8384
  23311169.596     8022865.683 6   6159390.80249  23311173.1004
  22501567.994    -2442958.043 6  -1852205.01049  22501570.7254
 95  2 15 16 45  0.0020000  0  3 14 15 22
  21431978.869    -1598113.141 7  -1213447.12449  21431980.7094
  23335221.330     8149258.664 6   6257878.78849  23335224.5764
  22497651.377    -2463539.322 6  -1868242.36649  22497654.0144
 95  2 15 16 45 30.0020000  0  3 14 15 22
  21430351.666    -1606663.410 7  -1220109.68449  21430353.4364
  23359323.869     8275916.626 6   6356573.22049  23359327.5724
  22493827.275    -2483634.300 6  -1883900.78249  22493829.7604
 95  2 15 16 46  0.0020000  0  3 14 15 22
  21428806.072    -1614786.867 7  -1226439.66249  21428808.0294
  23383475.916     8402837.171 6   6455472.28849  23383479.5024
  22490095.682    -2503243.874 6  -1899180.96749  22490098.4124
 95  2 15 16 46 30.0020000  0  3 14 15 22
  21427342.205    -1622479.217 7  -1232433.71149  21427343.9514
  23407677.424     8530014.557 6   6554571.48149  23407681.2914
  22486454.533    -2522377.854 5  -1914090.54849  22486457.4044
 95  2 15 16 47  0.0020000  0  3 14 15 22
  21425957.486    -1629754.661 7  -1238102.89849  21425959.2914
  23431926.221     8657444.080 6   6653867.15149  23431929.4794
  22482903.041    -2541042.192 6  -1928634.18449  22482905.5964
 95  2 15 16 47 30.0020000  0  3 14 15 22
  21424653.564    -1636607.451 7  -1243442.74249  21424655.2874
  23456222.330     8785120.130 6   6753354.90749  23456225.8934
  22479439.760    -2559241.971 6  -1942815.82349  22479442.2324
 95  2 15 16 48  0.0020000  0  3 14 15 22
  21423429.994    -1643038.501 7  -1248453.95949  21423431.6464
  23480564.228     8913037.766 6   6853030.93349  23480567.9324
  22476061.674    -2576994.674 6  -1956649.09849  22476064.0294
 95  2 15 16 48 30.0020000  0  3 14 15 22
  21422285.439    -1649051.936 7  -1253139.76049  21422287.2914
  23504952.252     9041198.145 6   6952896.09849  23504955.4634
  22472768.330    -2594300.262 6  -1970133.96849  22472771.0144
 95  2 15 16 49  0.0020000  0  3 14 15 22
  21421223.361    -1654633.405 7  -1257488.96849  21421225.3074
  23529386.494     9169599.572 6   7052949.07949  23529390.7714
  22469561.385    -2611152.783 6  -1983265.80149  22469564.0804
 95  2 15 16 49 30.0020000  0  3 14 15 22
  21420248.479    -1659756.933 7  -1261481.33149  21420250.2484
  23553866.893     9298245.557 6   7153192.64549  23553870.7254
  22466440.174    -2627555.809 6  -1996047.37949  22466442.6824
 95  2 15 16 50  0.0020000  0  3 14 15 22
  21419358.885    -1664432.432 7  -1265124.58049  21419360.5374
  23578391.736     9427124.515 6   7253617.73349  23578395.4044
  22463403.057    -2643516.477 6  -2008484.26449  22463405.5764
 95  2 15 16 50 30.0020000  0  3 14 15 22
  21418553.838    -1668663.080 7  -1268421.19449  21418555.5724
  23602957.650     9556217.404 6   7354209.54249  23602961.5064
  22460452.229    -2659023.087 6  -2020567.33549  22460454.7954
 95  2 15 16 51  0.0020000  0  3 14 15 22
  21417839.783    -1672415.273 7  -1271344.98549  21417841.6824
  23627568.057     9685545.316 6   7454984.46349  23627571.4434
  22457594.744    -2674037.417 6  -2032266.82049  22457597.4044
 95  2 15 16 51 30.0020000  0  3 14 15 22
  21417212.728    -1675710.133 7  -1273912.41549  21417214.7794
  23652220.650     9815095.582 6   7555932.65549  23652224.2364
  22454831.979    -2688556.039 6  -2043580.03049  22454834.7794
 95  2 15 16 52  0.0020000  0  3 14 15 22
  21416672.924    -1678548.286 7  -1276123.96649  21416674.6704
  23676915.885     9944872.018 6   7657057.10249  23676919.2834
  22452169.088    -2702550.513 6  -2054484.81649  22452171.7254
 95  2 15 16 52 30.0020000  0  3 14 15 22
  21416220.666    -1680924.936 7  -1277975.90749  21416222.3424
  23701652.486    10074862.237 6   7758348.11049  23701656.7054
  22449603.838    -2716030.648 6  -2064988.81349  22449606.5334
 95  2 15 16 53  0.0030000  0  3 14 15 22
  21415854.155    -1682850.515 7  -1279476.36049  21415855.8434
  23726429.554    10205065.969 6   7859805.49849  23726432.8114
  22447133.515    -2729012.302 6  -2075104.39149  22447136.1164
 95  2 15 16 53 30.0030000  0  3 14 15 22
  21415575.804    -1684312.956 7  -1280615.93049  21415577.4334
  23751248.804    10335489.064 6   7961433.79749  23751253.1164
  22444760.593    -2741482.077 6  -2084821.09249  22444763.2294
 95  2 15 16 54  0.0030000  0  3 14 15 22
  21415385.015    -1685315.936 7  -1281397.47749  21415386.4794
  23776105.241    10466112.842 5   8063218.50449  23776108.6284
  22442479.944    -2753467.270 6  -2094160.20349  22442482.6864
 95  2 15 16 54 30.0030000  0  3 14 15 22
  21415280.085    -1685867.007 7  -1281826.88749  21415281.5624
  23800997.874    10596922.531 5   8165148.04549  23801001.7884
  22440286.960    -2764990.616 6  -2103139.43049  22440289.5154
 95  2 15 16 55  0.0030000  0  3 14 15 22
  21415261.929    -1685962.904 7  -1281901.62049  21415263.2654
  23825929.515    10727940.912 5   8267240.21549  23825933.2534
  22438187.351    -2776024.971 6  -2111737.62049  22438189.9174
 95  2 15 16 55 30.0030000  0  3 14 15 22
  21415330.312    -1685603.707 7  -1281621.72849  21415331.7534
  23850900.499    10859163.670 5   8369491.64249  23850904.4834
  22436180.640    -2786570.120 6  -2119954.60949  22436183.1014
 95  2 15 16 56  0.0030000  0  4 18 14 15 22
  25507716.202      -36440.356 3
  21415484.062    -1684795.700 7  -1280992.11449  21415485.7024
  23875906.858    10990572.456 5   8471888.03149  23875910.7494
  22434263.749    -2796641.843 6  -2127802.69749  22434266.3274
 95  2 15 16 56 30.0030000  0  4 18 14 15 22
  25500545.358      -74124.701 3
  21415723.437    -1683537.596 7  -1280011.77849  21415724.8664
  23900951.062    11122177.469 6   8574437.31549  23900954.5424
  22432441.257    -2806220.635 6  -2135266.67649  22432444.1164
 95  2 15 16 57  0.0030000  0  4 18 14 15 22
  25493379.288     -111781.480 3    -26407.56956  25493381.5034
  21416050.101    -1681822.135 7  -1278675.06449  21416051.6474
  23926030.897    11253974.300 5   8677136.06549  23926034.4134
  22430713.311    -2815300.883 6  -2142342.17749  22430715.8434
 95  2 15 16 57 30.0030000  0  4 18 14 15 22
  25486219.108     -149407.385 3    -55726.43447  25486222.5194
  21416467.983    -1679624.190 7  -1276962.37949  21416469.5424
  23951147.108    11385961.430 5   8779983.13249  23951151.0694
  22429080.929    -2823878.979 6  -2149026.39349  22429083.6474
 95  2 15 16 58  0.0030000  0  4 18 14 15 22
  25479065.062     -187010.394 3    -85027.46948  25479068.4954
  21416977.749    -1676946.420 7  -1274875.81849  21416979.3784
  23976298.210    11518131.751 5   8882972.89749  23976302.6284
  22427545.413    -2831946.761 6  -2155312.96049  22427548.4724
 95  2 15 16 58 30.0030000  0  4 18 14 15 22
  25471910.702     -224601.326 3   -114319.05247  25471914.7804
  21417576.366    -1673800.900 7  -1272424.77049  21417577.9134
  24001482.546    11650476.108 5   8986098.29849  24001486.5424
  22426106.405    -2839509.734 6  -2161206.18049  22426109.3234
 95  2 15 16 59  0.0030000  0  4 18 14 15 22
  25464759.233     -262183.382 3   -143603.78547  25464763.3584
  21418266.179    -1670175.072 7  -1269599.45449  21418267.8664
  24026701.038    11782999.876 5   9089363.50649  24026705.1874
  22424765.272    -2846557.739 6  -2166698.11549  22424768.2374
 95  2 15 16 59 30.0030000  0  4 18 14 15 22
  25457607.179     -299769.469 3   -172891.58948  25457609.7334
  21419048.780    -1666062.114 7  -1266394.55349  21419050.4564
  24051953.890    11915703.862 5   9192769.12249  24051958.0264
  22423525.218    -2853073.163 6  -2171775.05749  22423528.2414
 95  2 15 17  0  0.0030000  0  4 18 14 15 22
  25450452.710     -337366.159 3   -202187.69146  25450453.9174
  21419924.624    -1661459.454 7  -1262808.07049  21419926.4404
  24077241.249    12048587.323 5   9296314.58849  24077245.6444
  22422389.999    -2859038.525 6  -2176423.38549  22422392.9994
 95  2 15 17  0 30.0030000  0  4 18 14 15 22
  25443298.733     -374955.911 4   -231478.39546  25443301.5224
  21420899.077    -1656339.633 7  -1258818.61049  21420900.9994
  24102563.257    12181659.179 5   9400006.86349  24102567.4994
  22421362.624    -2864438.707 6  -2180631.31349  22421365.3314
 95  2 15 17  1  0.0030000  0  4 18 14 15 22
  25436144.522     -412555.232 4   -260776.54948  25436146.8904
  21421970.483    -1650708.541 7  -1254430.75449  21421972.3234
  24127917.140    12314893.185 5   9503825.49049  24127920.9364
  22420441.257    -2869280.670 6  -2184404.25749  22420443.9874
 95  2 15 17  1 30.0030000  0  4 18 14 15 22
  25428991.405     -450144.005 4   -290066.45848  25428991.6754
  21423142.874    -1644548.341 7  -1249630.60549  21423144.8904
  24153304.022    12448299.003 5   9607777.99249  24153308.4404
  22419629.085    -2873549.666 6  -2187730.74449  22419631.8274
 95  2 15 17  2  0.0030000  0  4 18 14 15 22
  25421839.866     -487725.760 4   -319350.94846  25421842.5034
  21424411.952    -1637879.190 7  -1244433.87549  21424413.7694
  24178719.202    12581857.383 5   9711849.38549  24178722.6714
  22418919.640    -2877276.560 6  -2190634.81649  22418922.3004
 95  2 15 17  2 30.0030000  0  4 18 14 15 22
  25414695.374     -525272.247 4   -348607.92446  25414697.2724
  21425781.851    -1630680.220 7  -1238824.29949  21425783.6324
  24204166.671    12715587.710 5   9816054.74249  24204171.1714
  22418315.710    -2880450.317 6  -2193107.86849  22418318.5464
 95  2 15 17  3  0.0030000  0  4 18 14 15 22
  25407556.179     -562783.358 3   -377837.34446  25407560.3274
  21427251.335    -1622957.758 7  -1232806.80549  21427253.1754
  24229647.288    12849486.010 5   9920391.00549  24229650.4994
  22417814.663    -2883084.540 6  -2195160.50449  22417817.4054
 95  2 15 17  3 30.0030000  0  4 18 14 15 22
  25400424.022     -600264.784 3   -407043.65046  25400427.6674
  21428817.124    -1614729.317 7  -1226395.03749  21428819.1984
  24255156.968    12983543.903 5  10024851.61149  24255161.1514
  22417411.562    -2885200.644 6  -2196809.41249  22417414.4214
 95  2 15 17  4  0.0030000  0  4 18 14 15 22
  25393296.788     -637721.851 3   -436230.97847  25393299.4834
  21430479.218    -1605995.113 7  -1219589.17349  21430481.3514
  24280698.413    13117759.654 5  10129435.23249  24280701.5894
  22417108.522    -2886794.231 6  -2198051.15949  22417111.3584
 95  2 15 17  4 30.0030000  0  4 18 14 15 22
  25386108.694                      -21229.91413
  21432229.538        5272.47917
  24306531.757       76133.22615
  22416878.155        -552.79417
 95  2 15 17  5  0.0030000  0  4 18 14 15 22
  25378991.054                      -58637.491 3
  21434080.460       14999.327 7      3084.03059  21434082.3704
  24332129.132      210641.890 5
  22416780.983       -1063.371 7      -111.89959  22416783.8434
 95  2 15 17  5 30.0030000  0  4 18 14 15 22
  25371887.562      -95964.141 3    -18417.15156  25371894.3004
  21436035.780       25273.941 7     11090.21249  21436037.7724
  24357761.796      345347.116 5     62988.69159  24357764.9954
  22416801.913        -954.126 7       -26.77149  22416804.5264
 95  2 15 17  6  0.0030000  0  4 18 14 15 22
  25364793.554     -133246.626 3    -47468.44846  25364796.2964
  21438088.983       36063.572 7     19497.71249  21438091.0114
  24383425.530      480206.991 5    168074.23449  24383428.2374
  22416936.085        -247.688 7       523.71349  22416938.8514
 95  2 15 17  6 30.0030000  0  4 18 14 15 22
  25357705.812     -170492.194 3    -76490.94248  25357710.7574
  21440239.140       47363.890 7     28303.14849  21440241.3784
  24409114.288      615204.937 5    273267.37949  24409118.5194
  22417179.890        1033.242 7      1521.85149  22417182.5734
 95  2 15 17  7  0.0030000  0  4 18 14 15 22
  25350621.038     -207718.733 3   -105498.59848  25350624.5774
  21442489.507       59188.961 7     37517.48049  21442491.7334
  24434828.929      750333.588 5    378562.31749  24434833.2064
  22417529.390        2870.204 7      2953.26249  22417532.2724
 95  2 15 17  7 30.0030000  0  4 18 14 15 22
  25343539.679     -244931.616 3   -134495.67747  25343543.0304
  21444839.944       71539.031 7     47140.90549  21444842.2764
  24460566.647      885588.416 5    483955.63349  24460570.7964
  22417984.624        5263.327 7      4818.04149  22417987.5774
 95  2 15 17  8  0.0030000  0  4 18 14 15 22
  25336460.741     -282134.853 3   -163485.21446  25336467.0114
  21447289.577       84413.594 7     57173.02549  21447291.7334
  24486326.397     1020953.208 5    589434.58649  24486331.2144
  22418542.296        8193.281 7      7101.13549  22418545.0974
 95  2 15 17  8 30.0030000  0  4 18 14 15 22
  25329382.843     -319327.368 3   -192466.35248  25329384.3664
  21449840.272       97817.705 7     67617.78049  21449842.6284
  24512105.710     1156424.434 5    694996.49349  24512110.3744
  22419201.757       11658.637 7      9801.42949  22419204.7694
